| time (UTC) | temp C | wind direction | speed KPH | gust KPH | rain 1hr cm | rain 24hr cm | rain mn cm | humidity % | barometer mb |
| 20260503185305 | 16 | 201 | 3.2 | 4.8 | 0.00 | 0.03 | 0.03 | 95 | 1012.0 |
| 20260503184304 | 16 | 126 | 1.6 | 4.8 | 0.00 | 0.03 | 0.03 | 95 | 1012.0 |
| 20260503183805 | 16 | 114 | 3.2 | 4.8 | 0.00 | 0.03 | 0.03 | 95 | 1012.3 |
| 20260503175804 | 16 | 153 | 1.6 | 3.2 | 0.00 | 0.03 | 0.03 | 96 | 1012.3 |
| 20260503175305 | 16 | 89 | 1.6 | 3.2 | 0.00 | 0.03 | 0.03 | 96 | 1012.3 |
| 20260503174804 | 16 | 101 | 1.6 | 3.2 | 0.00 | 0.03 | 0.03 | 95 | 1012.4 |
| 20260503174305 | 16 | 101 | 1.6 | 3.2 | 0.00 | 0.03 | 0.03 | 96 | 1012.1 |
| 20260503173804 | 16 | 101 | 1.6 | 4.8 | 0.00 | 0.03 | 0.03 | 96 | 1012.5 |
| 20260503173305 | 16 | 78 | 1.6 | 3.2 | 0.00 | 0.03 | 0.03 | 96 | 1012.5 |
| 20260503171304 | 16 | 132 | 0.0 | 3.2 | 0.00 | 0.03 | 0.03 | 95 | 1012.3 |
| 20260503170805 | 16 | 140 | 1.6 | 4.8 | 0.00 | 0.03 | 0.03 | 95 | 1012.5 |
| 20260503170304 | 16 | 144 | 3.2 | 4.8 | 0.00 | 0.03 | 0.03 | 96 | 1012.5 |
| 20260503150305 | 17 | 0 | 0.0 | 0.0 | 0.00 | 0.03 | 0.03 | 92 | 1012.9 |
| 20260503131305 | 17 | 120 | 1.6 | 4.8 | 0.00 | 0.03 | 0.03 | 92 | 1013.7 |
| 20260503130805 | 16 | 107 | 0.0 | 4.8 | 0.00 | 0.03 | 0.03 | 93 | 1013.7 |
| 20260503130305 | 16 | 174 | 3.2 | 4.8 | 0.00 | 0.03 | 0.03 | 93 | 1013.7 |
| 20260503110305 | 16 | 118 | 3.2 | 4.8 | 0.00 | 0.03 | 0.03 | 94 | 1014.1 |
| 20260503080805 | 16 | 128 | 4.8 | 9.7 | 0.00 | 0.00 | 0.00 | 86 | 1013.6 |
| 20260503072806 | 15 | 123 | 3.2 | 4.8 | 0.00 | 0.00 | 0.00 | 87 | 1013.6 |
| 20260503060305 | 15 | 82 | 0.0 | 1.6 | 0.00 | 0.00 | 0.00 | 86 | 1013.0 |
| 20260503054805 | 15 | 82 | 0.0 | 1.6 | 0.00 | 0.00 | 0.00 | 86 | 1013.1 |
| 20260503054305 | 15 | 82 | 0.0 | 3.2 | 0.00 | 0.00 | 0.00 | 86 | 1013.1 |
| 20260503053805 | 15 | 82 | 1.6 | 3.2 | 0.00 | 0.00 | 0.00 | 86 | 1013.0 |
| 20260503053305 | 15 | 82 | 1.6 | 3.2 | 0.00 | 0.00 | 0.00 | 86 | 1012.8 |
| 20260503052805 | 15 | 82 | 0.0 | 0.0 | 0.00 | 0.00 | 0.00 | 86 | 1013.2 |
| 20260503050805 | 15 | 82 | 0.0 | 0.0 | 0.00 | 0.00 | 0.00 | 85 | 1012.9 |
| 20260503045805 | 15 | 82 | 0.0 | 0.0 | 0.00 | 0.00 | 0.00 | 85 | 1013.1 |
| 20260503045305 | 15 | 82 | 0.0 | 0.0 | 0.00 | 0.00 | 0.00 | 85 | 1013.3 |
| 20260503035805 | 15 | 96 | 1.6 | 3.2 | 0.00 | 0.00 | 0.00 | 83 | 1013.3 |
| 20260503035305 | 15 | 96 | 1.6 | 3.2 | 0.00 | 0.00 | 0.00 | 83 | 1012.7 |
| 20260503034805 | 15 | 96 | 1.6 | 4.8 | 0.00 | 0.00 | 0.00 | 83 | 1013.4 |
| 20260503032805 | 15 | 167 | 1.6 | 3.2 | 0.00 | 0.00 | 0.00 | 82 | 1012.9 |
| 20260503032305 | 15 | 86 | 1.6 | 4.8 | 0.00 | 0.00 | 0.00 | 82 | 1013.2 |
| 20260503030305 | 15 | 44 | 3.2 | 4.8 | 0.00 | 0.00 | 0.00 | 83 | 1013.0 |
| 20260503025805 | 15 | 50 | 3.2 | 8.0 | 0.00 | 0.00 | 0.00 | 83 | 1013.6 |
| 20260503025305 | 15 | 36 | 1.6 | 4.8 | 0.00 | 0.00 | 0.00 | 82 | 1013.6 |
| 20260503024805 | 15 | 37 | 1.6 | 4.8 | 0.00 | 0.00 | 0.00 | 82 | 1013.1 |
| 20260503024304 | 15 | 85 | 1.6 | 3.2 | 0.00 | 0.00 | 0.00 | 82 | 1013.7 |
| 20260503023804 | 15 | 150 | 0.0 | 3.2 | 0.00 | 0.00 | 0.00 | 82 | 1013.8 |
| 20260503023305 | 15 | 150 | 0.0 | 3.2 | 0.00 | 0.00 | 0.00 | 82 | 1013.7 |
| 20260503021805 | 15 | 63 | 0.0 | 1.6 | 0.00 | 0.00 | 0.00 | 82 | 1013.2 |
| 20260503021304 | 15 | 53 | 1.6 | 4.8 | 0.00 | 0.00 | 0.00 | 83 | 1013.8 |
| 20260503020805 | 15 | 44 | 3.2 | 4.8 | 0.00 | 0.00 | 0.00 | 83 | 1013.8 |
| 20260503014805 | 15 | 43 | 3.2 | 4.8 | 0.00 | 0.00 | 0.00 | 83 | 1013.9 |
| 20260503012805 | 15 | 36 | 1.6 | 1.6 | 0.00 | 0.00 | 0.00 | 84 | 1014.4 |
| 20260503012306 | 15 | 36 | 1.6 | 3.2 | 0.00 | 0.00 | 0.00 | 84 | 1014.8 |
| 20260503010304 | 15 | 93 | 3.2 | 3.2 | 0.00 | 0.00 | 0.00 | 84 | 1014.9 |
| 20260503005805 | 15 | 93 | 1.6 | 3.2 | 0.00 | 0.00 | 0.00 | 84 | 1014.9 |
| 20260503003304 | 16 | 93 | 0.0 | 0.0 | 0.00 | 0.00 | 0.00 | 84 | 1014.9 |
| 20260503002805 | 16 | 93 | 0.0 | 1.6 | 0.00 | 0.00 | 0.00 | 84 | 1014.7 |
| 20260503001805 | 15 | 93 | 0.0 | 4.8 | 0.00 | 0.00 | 0.00 | 84 | 1014.7 |
| 20260503001305 | 15 | 24 | 1.6 | 3.2 | 0.00 | 0.00 | 0.00 | 83 | 1015.7 |
| 20260502235305 | 15 | 5 | 0.0 | 1.6 | 0.00 | 0.00 | 0.00 | 82 | 1016.0 |
| 20260502234805 | 15 | 5 | 0.0 | 1.6 | 0.00 | 0.00 | 0.00 | 82 | 1015.5 |
| 20260502234305 | 15 | 5 | 0.0 | 0.0 | 0.00 | 0.00 | 0.00 | 82 | 1015.1 |
| 20260502231804 | 15 | 28 | 1.6 | 3.2 | 0.00 | 0.00 | 0.00 | 81 | 1015.8 |
| 20260502231305 | 15 | 28 | 0.0 | 1.6 | 0.00 | 0.00 | 0.00 | 81 | 1015.8 |
| 20260502230804 | 15 | 28 | 1.6 | 3.2 | 0.00 | 0.00 | 0.00 | 80 | 1015.4 |
| 20260502230305 | 15 | 28 | 1.6 | 3.2 | 0.00 | 0.00 | 0.00 | 80 | 1015.3 |
| 20260502225804 | 15 | 24 | 0.0 | 1.6 | 0.00 | 0.00 | 0.00 | 80 | 1015.6 |
| 20260502224805 | 15 | 329 | 1.6 | 3.2 | 0.00 | 0.00 | 0.00 | 79 | 1015.5 |
| 20260502224305 | 15 | 346 | 1.6 | 3.2 | 0.00 | 0.00 | 0.00 | 80 | 1015.6 |
| 20260502223805 | 15 | 71 | 0.0 | 1.6 | 0.00 | 0.00 | 0.00 | 80 | 1015.8 |
| 20260502222305 | 15 | 71 | 0.0 | 1.6 | 0.00 | 0.00 | 0.00 | 81 | 1014.9 |
| 20260502221805 | 15 | 71 | 1.6 | 3.2 | 0.00 | 0.00 | 0.00 | 81 | 1015.0 |
| 20260502214805 | 15 | 355 | 0.0 | 3.2 | 0.00 | 0.00 | 0.00 | 83 | 1015.8 |
| 20260502214304 | 15 | 23 | 3.2 | 4.8 | 0.00 | 0.00 | 0.00 | 84 | 1015.5 |
| 20260502213805 | 15 | 329 | 0.0 | 3.2 | 0.00 | 0.00 | 0.00 | 84 | 1016.0 |
| 20260502213304 | 15 | 313 | 1.6 | 3.2 | 0.00 | 0.00 | 0.00 | 85 | 1015.3 |
| 20260502212804 | 15 | 332 | 0.0 | 1.6 | 0.00 | 0.00 | 0.00 | 85 | 1015.6 |
| 20260502212305 | 15 | 316 | 0.0 | 3.2 | 0.00 | 0.00 | 0.00 | 84 | 1015.9 |
| 20260502205805 | 15 | 347 | 0.0 | 4.8 | 0.00 | 0.00 | 0.00 | 84 | 1015.3 |
| 20260502201304 | 16 | 257 | 0.0 | 0.0 | 0.00 | 0.00 | 0.00 | 83 | 1014.6 |
| 20260502200804 | 16 | 257 | 0.0 | 1.6 | 0.00 | 0.00 | 0.00 | 83 | 1014.4 |
| 20260502200305 | 16 | 257 | 1.6 | 1.6 | 0.00 | 0.00 | 0.00 | 83 | 1014.9 |
| 20260502195805 | 16 | 257 | 1.6 | 3.2 | 0.00 | 0.00 | 0.00 | 83 | 1014.8 |
| 20260502195305 | 16 | 257 | 0.0 | 4.8 | 0.00 | 0.00 | 0.00 | 83 | 1014.8 |
| 20260502194805 | 16 | 265 | 1.6 | 4.8 | 0.00 | 0.00 | 0.00 | 83 | 1014.9 |
| 20260502194304 | 16 | 215 | 3.2 | 4.8 | 0.00 | 0.00 | 0.00 | 83 | 1014.8 |
| 20260502193805 | 16 | 241 | 1.6 | 4.8 | 0.00 | 0.00 | 0.00 | 83 | 1014.4 |
| 20260502193304 | 17 | 245 | 4.8 | 4.8 | 0.00 | 0.00 | 0.00 | 82 | 1014.5 |
| 20260502192805 | 17 | 249 | 3.2 | 8.0 | 0.00 | 0.00 | 0.00 | 83 | 1014.8 |
| 20260502191804 | 17 | 261 | 1.6 | 4.8 | 0.00 | 0.00 | 0.00 | 84 | 1014.8 |
| 20260502191304 | 17 | 338 | 1.6 | 4.8 | 0.00 | 0.00 | 0.00 | 84 | 1014.5 |
| 20260502190805 | 17 | 257 | 4.8 | 9.7 | 0.00 | 0.00 | 0.00 | 84 | 1014.8 |
| 20260502190304 | 17 | 255 | 6.4 | 8.0 | 0.00 | 0.00 | 0.00 | 84 | 1014.7 |